sat.trackr.live / text

‹ back to catalog

STARLINK-35659

NORAD 66385 · 2025-257F

PAYLOAD ACTIVE UNKNOWN

§ Identity

Operator
Country
US
Launch date
2025-11-09
Launch site
AFETR
Launch vehicle
Mass (kg)
RCS (m²)

Purposes: comms

External: N2YO · Heavens-Above · Gunter

§ Orbital elements

Epoch: 2026-09-20T11:55:30.912384Z

Period
93.85 min
Inclination
53.1555°
Eccentricity
0.0001277
Mean motion
15.34417028 rev/d
Perigee alt
461.8 km
Apogee alt
463.5 km
Semi-major
6,840.8 km
B*
5.5937e-4
RAAN
27.6055°
Arg perigee
75.6357°
Mean anomaly
284.4787°
Rev number
4,962

§ Raw data

STARLINK-356591 66385U 25257F   26263.49688556  .00018580  00000+0  55937-3 0  99922 66385  53.1555  27.6055 0001277  75.6357 284.4787 15.34417028 49625

JSON: /api/v1/satellites/66385 · /tle

For live sub-satellite position, see the globe view (requires WebGL).

§ Visibility from observer

Set your observer location to see the next 7 days of passes ≥ 10°. The values pass through the URL so the page stays shareable.

No JS? Fill the form by hand. The geolocation button needs JavaScript.